Time,TemperatureF,DewpointF,PressureIn,WindDirection,WindDirectionDegrees,WindSpeedMPH,WindSpeedGustMPH,Humidity,HourlyPrecipIn,Conditions,Clouds,dailyrainin,SoftwareType,DateUTC
2013-03-05 00:02:00,39.0,-99.9,29.93,NNE,16,1.0,2.0,-999,-99.99,,,-99.99,,2013-03-05 08:02:00,
2013-03-05 00:11:00,38.0,-99.9,29.93,NNE,25,1.0,1.0,-999,-99.99,,,-99.99,,2013-03-05 08:11:00,
2013-03-05 00:21:00,38.0,-99.9,29.92,East,96,3.0,3.0,-999,-99.99,,,-99.99,,2013-03-05 08:21:00,
2013-03-05 00:32:00,38.0,-99.9,29.92,East,84,3.0,4.0,-999,-99.99,,,-99.99,,2013-03-05 08:32:00,
2013-03-05 00:42:00,38.0,-99.9,29.92,East,89,2.0,4.0,-999,-99.99,,,-99.99,,2013-03-05 08:42:00,
2013-03-05 00:52:00,38.0,-99.9,29.92,East,93,2.0,2.0,-999,-99.99,,,-99.99,,2013-03-05 08:52:00,
2013-03-05 01:02:00,37.0,-99.9,29.92,ENE,72,1.0,2.0,-999,-99.99,,,-99.99,,2013-03-05 09:02:00,
2013-03-05 01:11:00,38.0,-99.9,29.92,ENE,62,2.0,3.0,-999,-99.99,,,-99.99,,2013-03-05 09:11:00,
2013-03-05 01:22:00,37.0,-99.9,29.92,East,87,3.0,4.0,-999,-99.99,,,-99.99,,2013-03-05 09:22:00,
2013-03-05 01:32:00,37.0,-99.9,29.92,ENE,69,3.0,5.0,-999,-99.99,,,-99.99,,2013-03-05 09:32:00,
2013-03-05 01:43:00,36.0,-99.9,29.92,East,93,4.0,6.0,-999,-99.99,,,-99.99,,2013-03-05 09:43:00,
2013-03-05 01:52:00,36.0,-99.9,29.91,East,83,4.0,5.0,-999,-99.99,,,-99.99,,2013-03-05 09:52:00,
2013-03-05 02:02:00,36.0,-99.9,29.91,ENE,69,2.0,5.0,-999,-99.99,,,-99.99,,2013-03-05 10:02:00,
2013-03-05 02:11:00,35.0,-99.9,29.91,NNE,29,2.0,4.0,-999,-99.99,,,-99.99,,2013-03-05 10:11:00,
2013-03-05 02:22:00,35.0,-99.9,29.91,North,11,2.0,3.0,-999,-99.99,,,-99.99,,2013-03-05 10:22:00,
2013-03-05 02:32:00,35.0,-99.9,29.91,North,8,2.0,2.0,-999,-99.99,,,-99.99,,2013-03-05 10:32:00,
2013-03-05 02:42:00,35.0,-99.9,29.90,ENE,72,2.0,3.0,-999,-99.99,,,-99.99,,2013-03-05 10:42:00,
2013-03-05 02:52:00,35.0,-99.9,29.89,East,82,3.0,4.0,-999,-99.99,,,-99.99,,2013-03-05 10:52:00,
2013-03-05 03:02:00,36.0,-99.9,29.89,ENE,78,2.0,5.0,-999,-99.99,,,-99.99,,2013-03-05 11:02:00,
2013-03-05 03:12:00,36.0,-99.9,29.88,East,84,3.0,3.0,-999,-99.99,,,-99.99,,2013-03-05 11:12:00,
2013-03-05 03:22:00,36.0,-99.9,29.88,ESE,103,2.0,5.0,-999,-99.99,,,-99.99,,2013-03-05 11:22:00,
2013-03-05 03:32:00,36.0,-99.9,29.88,NE,54,1.0,4.0,-999,-99.99,,,-99.99,,2013-03-05 11:32:00,
2013-03-05 03:42:00,37.0,-99.9,29.86,East,79,8.0,10.0,-999,-99.99,,,-99.99,,2013-03-05 11:42:00,
2013-03-05 03:52:00,38.0,-99.9,29.86,East,94,5.0,7.0,-999,-99.99,,,-99.99,,2013-03-05 11:52:00,
2013-03-05 04:03:00,38.0,-99.9,29.86,ESE,107,4.0,7.0,-999,-99.99,,,-99.99,,2013-03-05 12:03:00,
2013-03-05 04:12:00,38.0,-99.9,29.85,East,100,3.0,6.0,-999,-99.99,,,-99.99,,2013-03-05 12:12:00,
2013-03-05 04:22:00,38.0,-99.9,29.85,NNW,339,1.0,2.0,-999,-99.99,,,-99.99,,2013-03-05 12:22:00,
2013-03-05 04:32:00,38.0,-99.9,29.85,NW,311,3.0,4.0,-999,-99.99,,,-99.99,,2013-03-05 12:32:00,
2013-03-05 04:42:00,38.0,-99.9,29.85,NW,317,3.0,4.0,-999,-99.99,,,-99.99,,2013-03-05 12:42:00,
2013-03-05 04:53:00,38.0,-99.9,29.84,NW,316,4.0,5.0,-999,-99.99,,,-99.99,,2013-03-05 12:53:00,
2013-03-05 05:02:00,38.0,-99.9,29.85,NW,310,4.0,6.0,-999,-99.99,,,-99.99,,2013-03-05 13:02:00,
2013-03-05 05:12:00,38.0,-99.9,29.85,WNW,297,5.0,6.0,-999,-99.99,,,-99.99,,2013-03-05 13:12:00,
2013-03-05 05:22:00,38.0,-99.9,29.85,North,349,3.0,5.0,-999,-99.99,,,-99.99,,2013-03-05 13:22:00,
2013-03-05 05:32:00,38.0,-99.9,29.84,North,8,3.0,5.0,-999,-99.99,,,-99.99,,2013-03-05 13:32:00,
2013-03-05 05:42:00,38.0,-99.9,29.84,ESE,105,2.0,3.0,-999,-99.99,,,-99.99,,2013-03-05 13:42:00,
2013-03-05 05:52:00,38.0,-99.9,29.83,East,101,3.0,4.0,-999,-99.99,,,-99.99,,2013-03-05 13:52:00,
2013-03-05 06:02:00,38.0,-99.9,29.83,South,188,2.0,3.0,-999,-99.99,,,-99.99,,2013-03-05 14:02:00,
2013-03-05 06:11:00,39.0,-99.9,29.83,SW,214,2.0,3.0,-999,-99.99,,,-99.99,,2013-03-05 14:11:00,
2013-03-05 06:22:00,39.0,-99.9,29.83,SSW,195,1.0,2.0,-999,-99.99,,,-99.99,,2013-03-05 14:22:00,
2013-03-05 06:32:00,39.0,-99.9,29.83,WSW,251,3.0,3.0,-999,-99.99,,,-99.99,,2013-03-05 14:32:00,
2013-03-05 06:42:00,39.0,-99.9,29.84,WSW,247,-999.0,3.0,-999,-99.99,,,-99.99,,2013-03-05 14:42:00,
2013-03-05 06:52:00,39.0,-99.9,29.83,North,11,2.0,3.0,-999,-99.99,,,-99.99,,2013-03-05 14:52:00,
2013-03-05 07:02:00,38.0,-99.9,29.84,ENE,69,2.0,3.0,-999,-99.99,,,-99.99,,2013-03-05 15:02:00,
2013-03-05 07:11:00,38.0,-99.9,29.84,North,349,1.0,4.0,-999,-99.99,,,-99.99,,2013-03-05 15:11:00,
2013-03-05 07:22:00,38.0,-99.9,29.85,ESE,104,2.0,3.0,-999,-99.99,,,-99.99,,2013-03-05 15:22:00,
2013-03-05 07:32:00,39.0,-99.9,29.85,NE,44,2.0,3.0,-999,-99.99,,,-99.99,,2013-03-05 15:32:00,
2013-03-05 07:42:00,39.0,-99.9,29.85,East,92,1.0,2.0,-999,-99.99,,,-99.99,,2013-03-05 15:42:00,
2013-03-05 07:52:00,39.0,-99.9,29.85,East,86,3.0,4.0,-999,-99.99,,,-99.99,,2013-03-05 15:52:00,
2013-03-05 08:02:00,39.0,-99.9,29.85,East,88,2.0,3.0,-999,-99.99,,,-99.99,,2013-03-05 16:02:00,
2013-03-05 08:11:00,39.0,-99.9,29.85,East,98,3.0,4.0,-999,-99.99,,,-99.99,,2013-03-05 16:11:00,
2013-03-05 08:22:00,39.0,-99.9,29.85,SSE,157,1.0,2.0,-999,-99.99,,,-99.99,,2013-03-05 16:22:00,
2013-03-05 08:32:00,39.0,-99.9,29.85,ESE,113,-999.0,1.0,-999,-99.99,,,-99.99,,2013-03-05 16:32:00,
2013-03-05 08:42:00,39.0,-99.9,29.85,NNW,334,2.0,2.0,-999,-99.99,,,-99.99,,2013-03-05 16:42:00,
2013-03-05 08:52:00,39.0,-99.9,29.86,NE,46,3.0,7.0,-999,-99.99,,,-99.99,,2013-03-05 16:52:00,
2013-03-05 09:01:00,40.0,-99.9,29.86,ENE,71,3.0,4.0,-999,-99.99,,,-99.99,,2013-03-05 17:01:00,
2013-03-05 09:11:00,40.0,-99.9,29.86,East,82,6.0,8.0,-999,-99.99,,,-99.99,,2013-03-05 17:11:00,
2013-03-05 09:22:00,40.0,-99.9,29.86,East,85,6.0,7.0,-999,-99.99,,,-99.99,,2013-03-05 17:22:00,
2013-03-05 09:32:00,40.0,-99.9,29.86,East,95,5.0,6.0,-999,-99.99,,,-99.99,,2013-03-05 17:32:00,
2013-03-05 09:42:00,41.0,-99.9,29.85,ESE,102,6.0,8.0,-999,-99.99,,,-99.99,,2013-03-05 17:42:00,
2013-03-05 09:53:00,42.0,-99.9,29.85,ESE,102,8.0,9.0,-999,-99.99,,,-99.99,,2013-03-05 17:53:00,
2013-03-05 10:02:00,42.0,-99.9,29.85,ESE,118,8.0,14.0,-999,-99.99,,,-99.99,,2013-03-05 18:02:00,
2013-03-05 10:11:00,42.0,-99.9,29.85,SE,128,13.0,17.0,-999,-99.99,,,-99.99,,2013-03-05 18:11:00,
2013-03-05 10:22:00,42.0,-99.9,29.85,SE,137,12.0,17.0,-999,-99.99,,,-99.99,,2013-03-05 18:22:00,
2013-03-05 10:32:00,42.0,-99.9,29.85,SSE,148,15.0,21.0,-999,-99.99,,,-99.99,,2013-03-05 18:32:00,
2013-03-05 10:42:00,42.0,-99.9,29.85,SE,144,13.0,20.0,-999,-99.99,,,-99.99,,2013-03-05 18:42:00,
2013-03-05 10:53:00,42.0,-99.9,29.85,SE,143,14.0,18.0,-999,-99.99,,,-99.99,,2013-03-05 18:53:00,
2013-03-05 11:02:00,42.0,-99.9,29.85,SE,135,10.0,19.0,-999,-99.99,,,-99.99,,2013-03-05 19:02:00,
2013-03-05 11:11:00,42.0,-99.9,29.85,SE,136,9.0,17.0,-999,-99.99,,,-99.99,,2013-03-05 19:11:00,
2013-03-05 11:22:00,42.0,-99.9,29.85,SE,133,9.0,14.0,-999,-99.99,,,-99.99,,2013-03-05 19:22:00,
2013-03-05 11:32:00,42.0,-99.9,29.85,SSE,153,10.0,14.0,-999,-99.99,,,-99.99,,2013-03-05 19:32:00,
2013-03-05 11:42:00,42.0,-99.9,29.84,SSE,155,7.0,12.0,-999,-99.99,,,-99.99,,2013-03-05 19:42:00,
2013-03-05 11:52:00,43.0,-99.9,29.83,SSE,149,8.0,13.0,-999,-99.99,,,-99.99,,2013-03-05 19:52:00,
2013-03-05 12:01:00,43.0,-99.9,29.83,SSE,157,12.0,15.0,-999,-99.99,,,-99.99,,2013-03-05 20:01:00,
2013-03-05 12:11:00,43.0,-99.9,29.84,SSE,161,11.0,16.0,-999,-99.99,,,-99.99,,2013-03-05 20:11:00,
2013-03-05 12:22:00,44.0,-99.9,29.84,SSE,166,11.0,17.0,-999,-99.99,,,-99.99,,2013-03-05 20:22:00,
2013-03-05 12:32:00,44.0,-99.9,29.84,SE,146,12.0,17.0,-999,-99.99,,,-99.99,,2013-03-05 20:32:00,
2013-03-05 12:42:00,44.0,-99.9,29.84,South,174,7.0,15.0,-999,-99.99,,,-99.99,,2013-03-05 20:42:00,
2013-03-05 12:52:00,44.0,-99.9,29.83,SE,141,9.0,13.0,-999,-99.99,,,-99.99,,2013-03-05 20:52:00,
2013-03-05 13:02:00,45.0,-99.9,29.83,SSE,162,10.0,13.0,-999,-99.99,,,-99.99,,2013-03-05 21:02:00,
2013-03-05 13:11:00,45.0,-99.9,29.82,NE,37,-999.0,13.0,-999,-99.99,,,-99.99,,2013-03-05 21:11:00,
2013-03-05 13:22:00,45.0,-99.9,29.81,SE,146,7.0,12.0,-999,-99.99,,,-99.99,,2013-03-05 21:22:00,
2013-03-05 13:32:00,45.0,-99.9,29.81,SSE,148,7.0,9.0,-999,-99.99,,,-99.99,,2013-03-05 21:32:00,
2013-03-05 13:42:00,45.0,-99.9,29.81,SSE,152,6.0,8.0,-999,-99.99,,,-99.99,,2013-03-05 21:42:00,
2013-03-05 13:52:00,46.0,-99.9,29.81,SSE,167,8.0,10.0,-999,-99.99,,,-99.99,,2013-03-05 21:52:00,
2013-03-05 14:01:00,46.0,-99.9,29.81,SSE,161,6.0,10.0,-999,-99.99,,,-99.99,,2013-03-05 22:01:00,
2013-03-05 14:12:00,46.0,-99.9,29.81,SE,142,5.0,10.0,-999,-99.99,,,-99.99,,2013-03-05 22:12:00,
2013-03-05 14:22:00,46.0,-99.9,29.80,SSE,161,6.0,8.0,-999,-99.99,,,-99.99,,2013-03-05 22:22:00,
2013-03-05 14:32:00,45.0,-99.9,29.80,SSE,163,9.0,13.0,-999,-99.99,,,-99.99,,2013-03-05 22:32:00,
2013-03-05 14:42:00,45.0,-99.9,29.80,SSE,152,7.0,10.0,-999,-99.99,,,-99.99,,2013-03-05 22:42:00,
2013-03-05 14:52:00,45.0,-99.9,29.80,ESE,114,7.0,11.0,-999,-99.99,,,-99.99,,2013-03-05 22:52:00,
2013-03-05 15:01:00,45.0,-99.9,29.80,SE,135,4.0,5.0,-999,-99.99,,,-99.99,,2013-03-05 23:01:00,
2013-03-05 15:11:00,45.0,-99.9,29.80,SE,137,4.0,6.0,-999,-99.99,,,-99.99,,2013-03-05 23:11:00,
2013-03-05 15:22:00,45.0,-99.9,29.80,ESE,121,3.0,6.0,-999,-99.99,,,-99.99,,2013-03-05 23:22:00,
2013-03-05 15:32:00,45.0,-99.9,29.80,ESE,113,4.0,5.0,-999,-99.99,,,-99.99,,2013-03-05 23:32:00,
2013-03-05 15:42:00,45.0,-99.9,29.79,ESE,122,4.0,6.0,-999,-99.99,,,-99.99,,2013-03-05 23:42:00,
2013-03-05 15:53:00,45.0,-99.9,29.79,ESE,123,4.0,6.0,-999,-99.99,,,-99.99,,2013-03-05 23:53:00,
2013-03-05 16:02:00,44.0,-99.9,29.79,ESE,120,4.0,7.0,-999,-99.99,,,-99.99,,2013-03-06 00:02:00,
2013-03-05 16:11:00,45.0,-99.9,29.79,ESE,106,4.0,5.0,-999,-99.99,,,-99.99,,2013-03-06 00:11:00,
2013-03-05 16:22:00,45.0,-99.9,29.79,SE,137,2.0,4.0,-999,-99.99,,,-99.99,,2013-03-06 00:22:00,
2013-03-05 16:32:00,44.0,-99.9,29.79,ESE,115,7.0,9.0,-999,-99.99,,,-99.99,,2013-03-06 00:32:00,
2013-03-05 16:42:00,44.0,-99.9,29.78,ESE,109,4.0,6.0,-999,-99.99,,,-99.99,,2013-03-06 00:42:00,
2013-03-05 16:52:00,44.0,-99.9,29.78,SE,127,1.0,3.0,-999,-99.99,,,-99.99,,2013-03-06 00:52:00,
2013-03-05 17:02:00,44.0,-99.9,29.78,SE,131,2.0,4.0,-999,-99.99,,,-99.99,,2013-03-06 01:02:00,
2013-03-05 17:11:00,44.0,-99.9,29.78,SSE,152,1.0,2.0,-999,-99.99,,,-99.99,,2013-03-06 01:11:00,
2013-03-05 17:22:00,44.0,-99.9,29.78,SE,126,1.0,2.0,-999,-99.99,,,-99.99,,2013-03-06 01:22:00,
2013-03-05 17:32:00,44.0,-99.9,29.78,ESE,112,1.0,3.0,-999,-99.99,,,-99.99,,2013-03-06 01:32:00,
2013-03-05 17:42:00,44.0,-99.9,29.78,ESE,104,1.0,2.0,-999,-99.99,,,-99.99,,2013-03-06 01:42:00,
2013-03-05 17:52:00,44.0,-99.9,29.78,ESE,111,2.0,4.0,-999,-99.99,,,-99.99,,2013-03-06 01:52:00,
2013-03-05 18:01:00,44.0,-99.9,29.78,ESE,113,3.0,6.0,-999,-99.99,,,-99.99,,2013-03-06 02:01:00,
2013-03-05 18:11:00,44.0,-99.9,29.78,ESE,103,2.0,4.0,-999,-99.99,,,-99.99,,2013-03-06 02:11:00,
2013-03-05 18:22:00,44.0,-99.9,29.78,SE,130,3.0,4.0,-999,-99.99,,,-99.99,,2013-03-06 02:22:00,
2013-03-05 18:32:00,44.0,-99.9,29.78,ESE,113,3.0,4.0,-999,-99.99,,,-99.99,,2013-03-06 02:32:00,
2013-03-05 18:42:00,44.0,-99.9,29.78,East,95,4.0,5.0,-999,-99.99,,,-99.99,,2013-03-06 02:42:00,
2013-03-05 18:52:00,44.0,-99.9,29.78,ESE,117,2.0,4.0,-999,-99.99,,,-99.99,,2013-03-06 02:52:00,
2013-03-05 19:02:00,44.0,-99.9,29.78,ESE,116,4.0,6.0,-999,-99.99,,,-99.99,,2013-03-06 03:02:00,
2013-03-05 19:11:00,43.0,-99.9,29.78,ESE,103,3.0,6.0,-999,-99.99,,,-99.99,,2013-03-06 03:11:00,
2013-03-05 19:22:00,44.0,-99.9,29.78,East,99,4.0,6.0,-999,-99.99,,,-99.99,,2013-03-06 03:22:00,
2013-03-05 19:32:00,43.0,-99.9,29.78,East,98,6.0,7.0,-999,-99.99,,,-99.99,,2013-03-06 03:32:00,
2013-03-05 19:42:00,43.0,-99.9,29.77,ESE,112,7.0,8.0,-999,-99.99,,,-99.99,,2013-03-06 03:42:00,
2013-03-05 19:53:00,43.0,-99.9,29.77,ESE,108,6.0,8.0,-999,-99.99,,,-99.99,,2013-03-06 03:53:00,
2013-03-05 20:02:00,43.0,-99.9,29.77,ESE,114,4.0,7.0,-999,-99.99,,,-99.99,,2013-03-06 04:02:00,
2013-03-05 20:11:00,43.0,-99.9,29.76,ESE,111,4.0,6.0,-999,-99.99,,,-99.99,,2013-03-06 04:11:00,
2013-03-05 20:22:00,43.0,-99.9,29.77,ESE,118,6.0,8.0,-999,-99.99,,,-99.99,,2013-03-06 04:22:00,
2013-03-05 20:32:00,43.0,-99.9,29.76,ESE,121,5.0,10.0,-999,-99.99,,,-99.99,,2013-03-06 04:32:00,
2013-03-05 20:42:00,43.0,-99.9,29.76,SE,129,7.0,10.0,-999,-99.99,,,-99.99,,2013-03-06 04:42:00,
2013-03-05 20:52:00,43.0,-99.9,29.75,SE,136,9.0,11.0,-999,-99.99,,,-99.99,,2013-03-06 04:52:00,
2013-03-05 21:02:00,43.0,-99.9,29.75,SE,125,9.0,11.0,-999,-99.99,,,-99.99,,2013-03-06 05:02:00,
2013-03-05 21:12:00,43.0,-99.9,29.75,ESE,122,5.0,11.0,-999,-99.99,,,-99.99,,2013-03-06 05:12:00,
2013-03-05 21:23:00,43.0,-99.9,29.75,SE,124,4.0,6.0,-999,-99.99,,,-99.99,,2013-03-06 05:23:00,
2013-03-05 21:32:00,43.0,-99.9,29.75,ESE,107,2.0,4.0,-999,-99.99,,,-99.99,,2013-03-06 05:32:00,
2013-03-05 21:42:00,43.0,-99.9,29.74,East,98,0.0,2.0,-999,-99.99,,,-99.99,,2013-03-06 05:42:00,
2013-03-05 21:52:00,43.0,-99.9,29.74,SE,125,3.0,5.0,-999,-99.99,,,-99.99,,2013-03-06 05:52:00,
2013-03-05 22:02:00,43.0,-99.9,29.74,South,181,4.0,8.0,-999,-99.99,,,-99.99,,2013-03-06 06:02:00,
2013-03-05 22:12:00,43.0,-99.9,29.74,East,95,3.0,6.0,-999,-99.99,,,-99.99,,2013-03-06 06:12:00,
2013-03-05 22:22:00,42.0,-99.9,29.74,WSW,256,2.0,3.0,-999,-99.99,,,-99.99,,2013-03-06 06:22:00,
2013-03-05 22:32:00,42.0,-99.9,29.73,NW,305,1.0,3.0,-999,-99.99,,,-99.99,,2013-03-06 06:32:00,
2013-03-05 22:42:00,42.0,-99.9,29.73,NW,320,2.0,3.0,-999,-99.99,,,-99.99,,2013-03-06 06:42:00,
2013-03-05 22:52:00,43.0,-99.9,29.72,NE,53,2.0,3.0,-999,-99.99,,,-99.99,,2013-03-06 06:52:00,
2013-03-05 23:02:00,42.0,-99.9,29.72,SW,222,-999.0,2.0,-999,-99.99,,,-99.99,,2013-03-06 07:02:00,
2013-03-05 23:11:00,42.0,-99.9,29.71,SSE,150,-999.0,2.0,-999,-99.99,,,-99.99,,2013-03-06 07:11:00,
2013-03-05 23:22:00,42.0,-99.9,29.70,South,190,2.0,3.0,-999,-99.99,,,-99.99,,2013-03-06 07:22:00,
2013-03-05 23:32:00,42.0,-99.9,29.70,NW,305,-999.0,3.0,-999,-99.99,,,-99.99,,2013-03-06 07:32:00,
2013-03-05 23:42:00,42.0,-99.9,29.70,SW,224,1.0,1.0,-999,-99.99,,,-99.99,,2013-03-06 07:42:00,
2013-03-05 23:52:00,41.0,-99.9,29.70,WNW,300,0.0,1.0,-999,-99.99,,,-99.99,,2013-03-06 07:52:00,